EW4337 Weather Reports


time (UTC)temp
F
wind
direction
speed
knots
gust
knots
rain 1hr
in
rain 24hr
in
rain mn
in
humidity
%
barometer
mb
20181015225704 59 152 0.0 0.0 0.00 0.00 0.00 91 1015.3
20181015224705 59 152 0.0 0.0 0.00 0.00 0.00 91 1015.3
20181015223704 59 152 0.0 0.0 0.00 0.00 0.00 91 1015.2
20181015222705 59 152 0.0 0.0 0.00 0.00 0.00 90 1015.1
20181015221705 60 281 0.0 0.0 0.00 0.00 0.00 90 1015.1
20181015220704 60 281 0.0 0.0 0.00 0.00 0.00 90 1015.2
20181015215704 60 281 0.0 0.0 0.00 0.00 0.00 89 1015.2
20181015214704 60 281 0.0 0.0 0.00 0.00 0.00 89 1015.1
20181015213704 61 281 0.0 0.0 0.00 0.00 0.00 89 1015.0
20181015212704 61 281 0.0 0.0 0.00 0.00 0.00 88 1015.0
20181015211705 61 281 0.0 0.0 0.00 0.00 0.00 88 1015.0
20181015210704 61 281 0.0 0.0 0.00 0.00 0.00 88 1014.9
20181015205703 62 281 0.0 0.0 0.00 0.00 0.00 88 1014.9
20181015204704 62 281 0.0 0.0 0.00 0.00 0.00 87 1014.9
20181015203703 62 281 0.0 0.0 0.00 0.00 0.00 87 1014.8
20181015202703 62 281 0.0 0.0 0.00 0.00 0.00 86 1014.8
20181015201704 62 281 0.0 0.0 0.00 0.00 0.00 86 1014.7
20181015200703 63 281 0.0 0.0 0.00 0.00 0.00 85 1014.5
20181015195704 63 281 0.0 0.0 0.00 0.00 0.00 85 1014.6
20181015194704 63 281 0.0 0.0 0.00 0.00 0.00 84 1014.6
20181015193704 63 281 0.0 0.0 0.00 0.00 0.00 83 1014.5
20181015192703 64 281 0.0 0.0 0.00 0.00 0.00 82 1014.4
20181015191704 64 281 0.0 0.0 0.00 0.00 0.00 82 1014.4
20181015190703 64 281 0.0 0.0 0.00 0.00 0.00 81 1014.4
20181015185704 64 281 0.0 0.0 0.00 0.00 0.00 80 1014.4
20181015184704 64 281 0.0 0.0 0.00 0.00 0.00 80 1014.4
20181015183704 64 281 0.0 0.0 0.00 0.00 0.00 79 1014.3
20181015182704 64 231 0.0 0.0 0.00 0.00 0.00 79 1014.1
20181015181704 65 231 0.0 0.0 0.00 0.00 0.00 79 1014.0
20181015180704 65 231 0.0 0.0 0.00 0.00 0.00 78 1013.8
20181015175704 65 231 0.0 0.0 0.00 0.00 0.00 77 1013.8
20181015174704 66 231 0.0 0.0 0.00 0.00 0.00 76 1013.8
20181015173704 66 231 0.0 0.0 0.00 0.00 0.00 75 1013.7
20181015172704 66 231 0.0 0.0 0.00 0.00 0.00 74 1013.6
20181015171705 67 231 0.0 0.0 0.00 0.00 0.00 73 1013.7
20181015170704 67 231 0.0 0.0 0.00 0.00 0.00 73 1013.7
20181015165704 67 231 0.0 0.0 0.00 0.00 0.00 71 1013.4
20181015164704 68 201 0.0 0.0 0.00 0.00 0.00 70 1013.3
20181015163704 68 201 0.0 0.0 0.00 0.00 0.00 69 1013.1
20181015162704 69 201 0.0 0.0 0.00 0.00 0.00 68 1013.0
20181015161704 70 201 0.0 2.6 0.00 0.00 0.00 67 1012.8
20181015160705 71 235 0.0 2.6 0.00 0.00 0.00 66 1012.8
20181015155704 71 234 0.0 2.6 0.00 0.00 0.00 65 1012.8
20181015154705 72 224 0.0 2.6 0.00 0.00 0.00 64 1012.8
20181015153704 73 240 1.7 7.8 0.00 0.00 0.00 63 1012.6
20181015152701 73 258 0.9 2.6 0.00 0.00 0.00 63 1012.5
20181015151702 73 201 0.9 8.7 0.00 0.00 0.00 62 1012.3
20181015150701 74 249 0.9 4.3 0.00 0.00 0.00 62 1012.3
20181015145701 73 245 0.9 4.3 0.00 0.00 0.00 64 1012.3
20181015144702 73 257 0.9 4.3 0.00 0.00 0.00 64 1012.1
20181015143701 72 189 0.0 4.3 0.00 0.00 0.00 65 1012.0
20181015142702 72 275 0.0 2.6 0.00 0.00 0.00 64 1012.1
20181015141702 72 226 0.9 7.0 0.00 0.00 0.00 64 1011.9
20181015140702 72 224 0.0 2.6 0.00 0.00 0.00 65 1011.9
20181015135701 72 246 1.7 7.0 0.00 0.00 0.00 64 1011.9
20181015134702 72 252 1.7 7.8 0.00 0.00 0.00 64 1011.9
20181015133701 72 249 0.9 8.7 0.00 0.00 0.00 63 1011.8
20181015132702 73 224 4.3 11.3 0.00 0.00 0.00 61 1011.7
20181015131702 74 156 1.7 10.4 0.00 0.00 0.00 60 1011.7
20181015130702 73 187 2.6 12.2 0.00 0.00 0.00 60 1011.7
20181015125702 74 184 2.6 8.7 0.00 0.00 0.00 59 1011.7
20181015124701 74 193 1.7 8.7 0.00 0.00 0.00 59 1011.6
20181015123702 73 158 0.9 7.8 0.00 0.00 0.00 58 1011.6
20181015122702 73 206 5.2 12.2 0.00 0.00 0.00 57 1011.6
20181015121702 73 222 0.0 7.8 0.00 0.00 0.00 58 1011.6
20181015120702 72 182 1.7 10.4 0.00 0.00 0.00 59 1011.6
20181015115703 72 188 2.6 12.2 0.00 0.00 0.00 59 1011.7
20181015114702 72 196 1.7 11.3 0.00 0.00 0.00 60 1011.8
20181015113702 71 176 1.7 8.7 0.00 0.00 0.00 60 1011.8
20181015112702 71 187 2.6 7.8 0.00 0.00 0.00 61 1011.8
20181015111702 71 200 1.7 7.8 0.00 0.00 0.00 59 1011.7
20181015110702 71 173 1.7 7.0 0.00 0.00 0.00 60 1011.7
20181015105702 71 219 1.7 11.3 0.00 0.00 0.00 59 1011.7
20181015104702 71 200 2.6 7.8 0.00 0.00 0.00 58 1011.7
20181015103702 71 177 0.9 7.0 0.00 0.00 0.00 58 1011.6
20181015102702 70 182 1.7 11.3 0.00 0.00 0.00 60 1011.5
20181015101703 69 204 2.6 12.2 0.00 0.00 0.00 61 1011.6
20181015100702 68 266 2.6 8.7 0.00 0.00 0.00 63 1011.7
20181015095702 67 193 0.9 6.1 0.00 0.00 0.00 65 1011.7
20181015094702 67 196 1.7 11.3 0.00 0.00 0.00 64 1011.7
20181015093702 66 250 0.0 6.1 0.00 0.00 0.00 66 1011.6
20181015092702 66 194 6.1 13.0 0.00 0.00 0.00 66 1011.5
20181015091703 65 166 4.3 13.0 0.00 0.00 0.00 66 1011.4
20181015090703 65 163 1.7 11.3 0.00 0.00 0.00 67 1011.3
20181015085703 64 179 4.3 8.7 0.00 0.00 0.00 69 1011.4
20181015084703 63 190 0.9 10.4 0.00 0.00 0.00 71 1011.4
20181015083703 62 187 1.7 7.0 0.00 0.00 0.00 74 1011.4
20181015082703 62 167 0.0 1.7 0.00 0.00 0.00 76 1011.3
20181015081702 61 158 0.0 2.6 0.00 0.00 0.00 78 1011.3
20181015080703 60 184 0.0 1.7 0.00 0.00 0.00 79 1011.2
20181015075702 59 189 0.0 1.7 0.00 0.00 0.00 80 1011.1
20181015074703 59 189 0.0 2.6 0.00 0.00 0.00 80 1011.0
20181015073703 58 154 0.9 2.6 0.00 0.00 0.00 81 1011.1
20181015072703 58 179 0.9 4.3 0.00 0.00 0.00 81 1011.1
20181015071703 58 138 1.7 5.2 0.00 0.00 0.00 82 1011.0
20181015070704 57 167 0.9 2.6 0.00 0.00 0.00 82 1010.9
20181015065704 57 159 0.0 2.6 0.00 0.00 0.00 83 1010.8
20181015064703 57 152 0.9 2.6 0.00 0.00 0.00 83 1010.7
20181015063702 57 154 0.0 2.6 0.00 0.00 0.00 84 1010.6
20181015062703 56 146 0.0 4.3 0.00 0.00 0.00 84 1010.6
20181015061703 56 151 0.0 2.6 0.00 0.00 0.00 85 1010.5
20181015060703 56 169 0.0 4.3 0.00 0.00 0.00 85 1010.4
20181015055703 56 171 0.0 1.7 0.00 0.00 0.00 85 1010.3
20181015054702 56 171 0.0 0.0 0.00 0.00 0.00 85 1010.2
20181015053703 56 171 0.0 1.7 0.00 0.00 0.00 85 1010.1
20181015052703 56 148 0.9 2.6 0.00 0.00 0.00 85 1010.1
20181015051703 56 139 0.9 2.6 0.00 0.00 0.00 85 1010.0
20181015050703 56 150 0.0 2.6 0.00 0.00 0.00 85 1010.0
20181015045703 56 142 0.9 2.6 0.00 0.00 0.00 85 1009.9
20181015044704 56 178 1.7 4.3 0.00 0.00 0.00 86 1009.9
20181015043704 56 177 0.0 2.6 0.00 0.00 0.00 86 1009.9
20181015042703 56 173 0.0 0.0 0.00 0.00 0.00 85 1009.9
20181015041703 56 173 0.0 0.0 0.00 0.00 0.00 84 1009.9
20181015040703 56 173 0.0 0.0 0.00 0.00 0.00 84 1010.0
20181015035704 56 173 0.0 0.0 0.00 0.00 0.00 83 1010.0
20181015034703 57 173 0.0 0.0 0.00 0.00 0.00 83 1009.9
20181015033703 57 173 0.0 0.9 0.00 0.00 0.00 82 1009.9
20181015032704 57 179 0.0 1.7 0.00 0.00 0.00 82 1009.8
20181015031704 57 157 0.9 2.6 0.00 0.00 0.00 82 1009.7
20181015030703 57 162 0.0 4.3 0.00 0.00 0.00 82 1009.6
20181015025704 57 157 0.0 1.7 0.00 0.00 0.00 82 1009.7
20181015024704 57 156 0.9 4.3 0.00 0.00 0.00 82 1009.7
20181015023703 57 157 1.7 2.6 0.00 0.00 0.00 82 1009.6
20181015022704 57 159 0.0 2.6 0.00 0.00 0.00 81 1009.6
20181015021703 58 164 0.0 1.7 0.00 0.00 0.00 80 1009.6
20181015020703 58 179 0.9 2.6 0.00 0.00 0.00 80 1009.6
20181015015704 59 154 0.0 2.6 0.00 0.00 0.00 79 1009.6
20181015014704 59 144 0.0 2.6 0.00 0.00 0.00 79 1009.6
20181015013704 59 154 0.9 4.3 0.00 0.00 0.00 79 1009.6
20181015012703 59 154 0.9 2.6 0.00 0.00 0.00 79 1009.6
20181015011704 59 150 0.0 2.6 0.00 0.00 0.00 78 1009.5
20181015010704 60 151 0.9 4.3 0.00 0.00 0.00 78 1009.5
20181015005704 60 137 0.9 4.3 0.00 0.00 0.00 77 1009.5
20181015004703 60 135 0.9 2.6 0.00 0.00 0.00 77 1009.5
20181015003704 61 144 0.9 4.3 0.00 0.00 0.00 76 1009.4
20181015002704 61 140 0.9 2.6 0.00 0.00 0.00 76 1009.5
20181015001704 61 138 0.9 4.3 0.00 0.00 0.00 76 1009.5
20181015000704 61 141 1.7 7.0 0.00 0.00 0.00 76 1009.4
20181014235704 61 148 0.9 4.3 0.00 0.00 0.00 76 1009.4
20181014234704 61 146 0.0 0.9 0.00 0.00 0.00 76 1009.4
20181014233704 61 179 0.0 1.7 0.00 0.00 0.00 75 1009.5
20181014232704 62 181 0.0 1.7 0.00 0.00 0.00 73 1009.4
20181014231704 62 150 0.0 0.0 0.00 0.00 0.00 73 1009.5
20181014230704 63 150 0.0 2.6 0.00 0.00 0.00 72 1009.4